Regional Weather Roundup
Issued by NWS

Home | Current Version | Previous Version | Graphics & Text | Print | Product List | Glossary On
Versions: 1 2 3 4 5 6 7 8 9 10 11 12 13 14 15 16 17 18 19 20 21 22 23 24 25 26 27 28 29 30 31 32 33 34 35 36 37 38 39 40 41 42 43 44 45 46 47 48 49 50
000
ASUS43 KMKX 282321
RWRWI

WISCONSIN REGIONAL WEATHER ROUNDUP
NATIONAL WEATHER SERVICE MILWAUKEE/SULLIVAN WI
500 PM CST FRI NOV 28 2014

NOTE: "FAIR" INDICATES FEW OR NO CLOUDS BELOW 12,000 FEET WITH NO
SIGNIFICANT WEATHER AND/OR OBSTRUCTIONS TO VISIBILITY.

WIZ001-002-006>008-014>016-023>028-290000-
NORTHWEST WISCONSIN

CITY           SKY/WX    TMP DP  RH WIND       PRES   REMARKS
SUPERIOR ARPT  CLOUDY    18  12  76 CALM      29.92R
ASHLAND        CLOUDY    17  12  80 CALM      29.91F
HAYWARD        CLOUDY    17  11  77 SE5       29.86F WCI  10
SIREN          MOCLDY    18  12  77 CALM      29.88S
CUMBERLAND     CLOUDY    18  12  79 SE8       29.85F WCI   7
RICE LAKE      CLOUDY    19  14  79 E7        29.87F WCI  10
CHETEK         MIX PCPN  19  14  80 E6        29.87F WCI  11
LADYSMITH      MOCLDY    18  13  81 SE5       29.89S WCI  11
EAU CLAIRE     CLOUDY    23  15  71 SE6       29.88R WCI  16
MENOMONIE      CLOUDY    24  17  74 E6        29.87F WCI  17
NEW RICHMOND   PTCLDY    20  14  76 E6        29.85S WCI  13
OSCEOLA        MOCLDY    21  15  79 E7        29.87F WCI  12
$$

WIZ003>005-009-010-017-018-290000-
NORTH CENTRAL WISCONSIN

CITY           SKY/WX    TMP DP  RH WIND       PRES   REMARKS
MANITOWISH WTR CLOUDY    14  11  87 SE3       29.86F
ARBOR VITAE    PTCLDY    14  11  87 SE3       29.87S
WOODRUFF       PTCLDY    14  11  87 SE3       29.87S
RHINELANDER    CLOUDY    14  10  84 SE9       29.88F WCI   2
EAGLE RIVER    FLURRIES  14   9  81 CALM      29.88R
LAND O LAKES   CLOUDY    15  11  85 SE5       29.89S WCI   7
PHILLIPS       CLOUDY    15  11  85 SE6       29.85F WCI   6
TOMAHAWK       FLURRIES  16  12  86 CALM      29.89R
MEDFORD        CLOUDY    17  13  86 SE7       29.87S WCI   7
MERRILL        LGT SNOW  17  14  86 SE3       29.90R
$$

WIZ029-030-035-036-043>047-290000-
CENTRAL WISCONSIN

CITY           SKY/WX    TMP DP  RH WIND       PRES   REMARKS
WAUSAU         CLOUDY    18  14  84 SE8       29.89S WCI   8
MOSINEE        CLOUDY    18  18 100 E5        29.91R WCI  11
MARSHFIELD     CLOUDY    21  15  78 SE7       29.89R WCI  12
STEVENS POINT  CLOUDY    18  15  88 E3        29.94R
WAUPACA        CLOUDY    24  19  80 E5        29.94S WCI  18
WAUTOMA        MOCLDY    24  18  78 CALM      29.93S
WISC RAPIDS    CLOUDY    23  16  74 SE6       29.92R WCI  16
CAMP DOUGLAS   CLOUDY    25  23  93 SE3       29.90R
$$

WIZ011>013-019>022-031-037>040-048>050-290000-
NORTHEAST WISCONSIN

CITY           SKY/WX    TMP DP  RH WIND       PRES   REMARKS
ANTIGO         CLOUDY    14  11  89 SE8       29.88F WCI   3
SHAWANO        LGT SNOW  21  19  89 NE5       29.96S WCI  15
OCONTO         CLOUDY    22  22  99 CALM      29.98S
STURGEON BAY   CLOUDY    21  19  93 CALM      29.96F
GREEN BAY      LGT SNOW  25  22  88 CALM      29.96S FOG
MANITOWOC      MIX PCPN  31  27  85 SW13      29.96F WCI  21
APPLETON       CLOUDY    25  18  74 SE3       29.94F
CLINTONVILLE   LGT SNOW  21  18  86 E3        29.95F
OSHKOSH        CLOUDY    26  19  74 MISG      29.93F
$$

WIZ032>034-041-042-053>061-290000-
SOUTHWEST WISCONSIN

CITY           SKY/WX    TMP DP  RH WIND       PRES   REMARKS
LA CROSSE      CLOUDY    28  20  71 SE3       29.89S
SPARTA         MOCLDY    26  20  79 SE5       29.90S WCI  20
VIROQUA        MOCLDY    24  19  82 SE7       29.86R WCI  16
BOSCOBEL       CLOUDY    28  20  71 CALM      29.91S
PRAIRIE DU CHI MOCLDY    28  21  72 E5        29.88F WCI  23
PLATTEVILLE    CLOUDY    28  24  85 CALM      29.87S
$$

WIZ056-057-062-063-064-067-068-290000-
SOUTH CENTRAL WISCONSIN

CITY           SKY/WX    TMP DP  RH WIND       PRES   REMARKS
REEDSBURG      MIX PCPN  25  21  83 S5        29.89S WCI  20
BARABOO/DELLS  MIX PCPN  26  21  82 S8        29.89R WCI  17
LONE ROCK      CLOUDY    30  20  66 E6        29.91S WCI  24
MINERAL POINT  MOCLDY    28  25  86 SE7       29.87F WCI  21
MADISON        CLOUDY    27  21  78 SE9       29.90F WCI  18
MIDDLETON      CLOUDY    29  23  78 S9        29.89F WCI  20
WATERTOWN      CLOUDY    26  22  82 SE3       29.93F
MONROE         MOCLDY    28  28 100 SE6       29.88F WCI  22
JANESVILLE     MOCLDY    30  25  80 SE8       29.92F WCI  23
$$

WIZ051-052-058>065-066-070>072-290000-
SOUTHEAST WISCONSIN

CITY           SKY/WX    TMP DP  RH WIND       PRES   REMARKS
MILWAUKEE      CLOUDY    29  19  66 SE9       29.96F WCI  20
WAUKESHA       CLOUDY    25  16  68 SE12      29.98S WCI  14
MILWAUKEE/TIMM CLOUDY    28  18  64 S6        29.98F WCI  22
RACINE         CLOUDY    30  21  69 S8        29.99F WCI  22
BURLINGTON     CLOUDY    28  22  80 SE7       29.95F WCI  20
KENOSHA        CLOUDY    30  22  72 S7        29.97F WCI  23
FOND DU LAC    CLOUDY    27  18  69 S7        29.94F WCI  19
SHEBOYGAN      CLOUDY    28  20  71 S8        29.95F WCI  20
WEST BEND      CLOUDY    27  19  74 S6        29.94F WCI  20
JUNEAU         CLOUDY    25  20  80 SE9       29.92F WCI  16
$$

LSZ147-162-290000-
LAKE SUPERIOR

STATION/POSITION TIME  TEMP    WIND        PRES    WAVE
                       AIR SEA DIR/SP/G            HT/PER
                 (UTC) (F)     (DEG/KT/KT) (MB)    (FT/S)
DEVILS ISLAND    2300   21     140/  5/  7 1014.4F
PORT WING        2200   18     130/  3/  4 1013.2
SAXON HARBOR     2240   19        CALM     1013.2F
$$

LMZ867-665-643>646-290000-
LAKE MICHIGAN

STATION/POSITION TIME  TEMP    WIND        PRES    WAVE
                       AIR SEA DIR/SP/G            HT/PER
                 (UTC) (F)     (DEG/KT/KT) (MB)    (FT/S)
CHAMBERS ISLAND  2200   23      60/  6/  8 1015.9F
N MID LAKE BUOY  2250   29 42  160/ 17/ 21 1016.7F   2/ 4
NORTHPORT PIER   2220   24      50/  5/  8 1015.9F
SISTER BAY       2213             CALM       N/A
ALGOMA LAKESHORE 2213          340/  7/  8   N/A
KEWAUNEE LAKESHO 2300   32     170/ 20/ 24 1013.4F
SHEBOYGAN LAKESH 2300   30 35  210/ 12/ 14 1015.8F
PORT WASHINGTON  2300   30     190/ 10/ 15 1015.2F
MILWAUKEE LAKESH 2300   30     180/ 10/ 12   N/A
S MID LAKE BUOY  2250   35 42  180/ 19/ 25 1016.6F   5/ 6
KENOSHA   LAKESH 2300   32     190/  9/ 15 1015.2S
$$

TC  - TEMPERATURE IN CELSIUS
VSB - VISIBILITY IN STATUTE MILES
WCI - WIND CHILL INDEX
HX  - HEAT INDEX




USA.gov is the U.S. government's official web portal to all federal, state and local government web resources and services.